Location: Maccacari
(45.1333°N, 11.1333°E)
Time: 21:48:12
(UTC+00:00)

Cosmos 1025 Rocket - Pass Details

Date: 18 September 2020
Orbit: 595 x 617 km, 82.5° (Epoch: 25 October)

Event Time Altitude Azimuth Distance (km) Brightness Sun altitude
Rises 18:46:25 0° 353° (N) 2,885 6.9 -15.8°
Reaches altitude 10° 18:48:39 10° 355° (N) 1,979 6.0 -16.1°
Maximum altitude 18:53:02 72° 80° (E) 649 2.9 -16.9°
Enters shadow 18:56:07 19° 163° (SSE) 1,470 4.6 -17.4°
